This is the latest recevied weather packets stored in our database for station/object WE3WEE. If no packets are shown the sender has not sent any weather packets the latest 10 day(s).
| Time | Temp. | Humidity | Pressure | Rain* | Wind** | Luminosity | Snow |
|---|---|---|---|---|---|---|---|
| 1777573384 | 14.44° C | 66% | 1008.5 hPa | 0 mm | - | - | - |
| 1777573079 | 14.44° C | 65% | 1008.5 hPa | 0 mm | - | - | - |
| 1777572776 | 13.89° C | 69% | 1008.5 hPa | 0 mm | - | - | - |
| 1777572471 | 13.89° C | 64% | 1008.5 hPa | 0 mm | - | - | - |
| 1777572167 | 13.33° C | 66% | 1008.5 hPa | 0 mm | - | - | - |
| 1777571863 | 13.33° C | 66% | 1008.5 hPa | 0 mm | - | - | - |
| 1777571558 | 13.89° C | 68% | 1008.5 hPa | 0 mm | - | - | - |
| 1777571255 | 13.89° C | 67% | 1008.5 hPa | 0 mm | - | - | - |
| 1777570952 | 13.89° C | 69% | 1008.5 hPa | 0 mm | - | - | - |
| 1777570647 | 13.33° C | 69% | 1008.5 hPa | 0 mm | - | - | - |
| 1777570344 | 13.33° C | 70% | 1008.5 hPa | 0 mm | - | - | - |
| 1777570040 | 13.33° C | 70% | 1008.5 hPa | 0 mm | - | - | - |
| 1777569736 | 13.33° C | 69% | 1008.5 hPa | 0 mm | - | - | - |
| 1777569431 | 12.78° C | 70% | 1008.5 hPa | 0 mm | - | - | - |
| 1777569129 | 12.78° C | 72% | 1008.5 hPa | 0 mm | - | - | - |
| 1777568825 | 12.78° C | 71% | 1008.5 hPa | 0 mm | - | - | - |
| 1777568523 | 12.78° C | 73% | 1008.5 hPa | 0 mm | - | - | - |
| 1777568219 | 12.22° C | 75% | 1008.5 hPa | 0 mm | - | - | - |
| 1777567916 | 12.22° C | 74% | 1008.5 hPa | 0 mm | - | - | - |
| 1777567612 | 12.22° C | 71% | 1008.5 hPa | 0 mm | - | - | - |
| 1777567309 | 12.22° C | 74% | 1008.5 hPa | 0 mm | - | - | - |
| 1777567008 | 12.22° C | 73% | 1008.5 hPa | 0 mm | - | - | - |
| 1777566705 | 12.22° C | 74% | 1008.5 hPa | 0 mm | - | - | - |
| 1777566403 | 12.22° C | 73% | 1008.5 hPa | 0 mm | - | - | - |
| 1777566100 | 12.22° C | 75% | 1008.5 hPa | 0 mm | - | - | - |
* Rain latest hour (hover to see other rain measurements)
** Current wind speed in m/s (hover to see current wind gust speed)